TimeEDT,TemperatureF,Dew PointF,Humidity,Sea Level PressureIn,VisibilityMPH,Wind Direction,Wind SpeedMPH,Gust SpeedMPH,PrecipitationIn,Events,Conditions,WindDirDegrees,DateUTC
12:15 AM,19.4,15.8,86,29.89,1.5,WNW,10.4,-,N/A,,Overcast,290,2013-03-13 04:15:00
12:35 AM,19.4,14.0,80,29.90,2.0,WNW,11.5,-,N/A,,Overcast,290,2013-03-13 04:35:00
12:55 AM,19.4,14.0,80,29.90,1.8,WNW,10.4,-,N/A,,Overcast,300,2013-03-13 04:55:00
1:55 AM,19.4,15.8,86,29.91,2.0,WNW,6.9,-,N/A,,Overcast,300,2013-03-13 05:55:00
2:35 AM,19.4,15.8,86,29.92,3.0,NW,9.2,-,N/A,,Overcast,310,2013-03-13 06:35:00
2:55 AM,19.4,15.8,86,29.92,5.0,WNW,9.2,-,N/A,,Mostly Cloudy,300,2013-03-13 06:55:00
3:15 AM,19.4,15.8,86,29.93,6.0,WNW,9.2,-,N/A,,Overcast,300,2013-03-13 07:15:00
3:35 AM,19.4,15.8,86,29.93,7.0,WNW,9.2,-,N/A,,Overcast,300,2013-03-13 07:35:00
3:55 AM,19.4,14.0,80,29.93,6.0,WNW,9.2,-,N/A,,Overcast,300,2013-03-13 07:55:00
4:15 AM,19.4,14.0,80,29.94,9.0,WNW,11.5,-,N/A,,Overcast,300,2013-03-13 08:15:00
4:55 AM,19.4,12.2,74,29.94,10.0,WNW,12.7,-,N/A,,Overcast,300,2013-03-13 08:55:00
5:15 AM,19.4,12.2,74,29.95,10.0,WNW,10.4,18.4,N/A,,Overcast,300,2013-03-13 09:15:00
5:35 AM,19.4,12.2,74,29.96,9.0,WNW,10.4,-,N/A,,Overcast,300,2013-03-13 09:35:00
6:15 AM,19.4,10.4,68,29.97,10.0,NW,13.8,17.3,N/A,,Overcast,310,2013-03-13 10:15:00
6:35 AM,19.4,12.2,74,29.98,10.0,NW,16.1,20.7,N/A,,Overcast,310,2013-03-13 10:35:00
6:55 AM,19.4,12.2,74,29.99,10.0,WNW,12.7,18.4,N/A,,Overcast,300,2013-03-13 10:55:00
7:15 AM,19.4,12.2,74,30.00,10.0,NW,11.5,19.6,N/A,,Overcast,320,2013-03-13 11:15:00
7:35 AM,19.4,10.4,68,30.01,10.0,NW,13.8,20.7,N/A,,Overcast,310,2013-03-13 11:35:00
7:55 AM,17.6,10.4,73,30.02,10.0,NW,12.7,-,N/A,,Mostly Cloudy,310,2013-03-13 11:55:00
8:15 AM,17.6,8.6,68,30.02,10.0,NW,11.5,16.1,N/A,,Partly Cloudy,310,2013-03-13 12:15:00
8:35 AM,17.6,8.6,68,30.04,10.0,WNW,10.4,-,N/A,,Clear,300,2013-03-13 12:35:00
8:55 AM,17.6,8.6,68,30.04,10.0,WNW,11.5,18.4,N/A,,Clear,300,2013-03-13 12:55:00
9:15 AM,17.6,8.6,68,30.05,10.0,NW,13.8,-,N/A,,Clear,310,2013-03-13 13:15:00
9:35 AM,17.6,8.6,68,30.06,10.0,NW,11.5,-,N/A,,Clear,310,2013-03-13 13:35:00
9:55 AM,19.4,8.6,63,30.07,10.0,NW,13.8,24.2,N/A,,Clear,320,2013-03-13 13:55:00
10:15 AM,19.4,8.6,63,30.08,10.0,NNW,13.8,20.7,N/A,,Clear,330,2013-03-13 14:15:00
10:35 AM,21.2,10.4,63,30.08,10.0,NW,19.6,26.5,N/A,,Clear,320,2013-03-13 14:35:00
10:55 AM,21.2,8.6,58,30.10,10.0,NNW,17.3,24.2,N/A,,Partly Cloudy,330,2013-03-13 14:55:00
11:15 AM,21.2,8.6,58,30.11,10.0,NNW,12.7,25.3,N/A,,Partly Cloudy,330,2013-03-13 15:15:00
11:35 AM,21.2,8.6,58,30.11,10.0,NNW,12.7,25.3,N/A,,Mostly Cloudy,330,2013-03-13 15:35:00
11:55 AM,24.8,10.4,54,30.12,10.0,NNW,18.4,24.2,N/A,,Mostly Cloudy,330,2013-03-13 15:55:00
12:15 PM,24.8,8.6,50,30.14,10.0,NNW,15.0,26.5,N/A,,Mostly Cloudy,340,2013-03-13 16:15:00
12:35 PM,24.8,10.4,54,30.14,10.0,NNW,15.0,29.9,N/A,,Mostly Cloudy,330,2013-03-13 16:35:00
12:55 PM,24.8,10.4,54,30.15,10.0,North,10.4,20.7,N/A,,Scattered Clouds,350,2013-03-13 16:55:00
1:15 PM,26.6,8.6,47,30.15,10.0,NNW,13.8,25.3,N/A,,Partly Cloudy,330,2013-03-13 17:15:00
1:35 PM,26.6,8.6,47,30.15,10.0,NNW,15.0,20.7,N/A,,Partly Cloudy,330,2013-03-13 17:35:00
1:55 PM,26.6,10.4,51,30.15,10.0,NNW,15.0,24.2,N/A,,Clear,330,2013-03-13 17:55:00
2:15 PM,26.6,10.4,51,30.15,10.0,NW,17.3,21.9,N/A,,Partly Cloudy,320,2013-03-13 18:15:00
2:35 PM,28.4,6.8,40,30.16,10.0,NNW,12.7,23.0,N/A,,Clear,330,2013-03-13 18:35:00
2:55 PM,28.4,6.8,40,30.16,10.0,NNW,12.7,23.0,N/A,,Clear,340,2013-03-13 18:55:00
3:15 PM,28.4,5.0,37,30.16,10.0,NNW,16.1,21.9,N/A,,Clear,340,2013-03-13 19:15:00
3:35 PM,28.4,3.2,34,30.15,10.0,NW,15.0,21.9,N/A,,Clear,320,2013-03-13 19:35:00
3:55 PM,28.4,3.2,34,30.16,10.0,NNW,15.0,25.3,N/A,,Clear,340,2013-03-13 19:55:00
4:15 PM,30.2,3.2,32,30.15,10.0,NW,13.8,21.9,N/A,,Clear,310,2013-03-13 20:15:00
4:35 PM,30.2,3.2,32,30.16,10.0,North,12.7,20.7,N/A,,Clear,350,2013-03-13 20:35:00
4:55 PM,30.2,3.2,32,30.17,10.0,NNW,11.5,18.4,N/A,,Clear,340,2013-03-13 20:55:00
5:15 PM,30.2,3.2,32,30.17,10.0,NNW,15.0,21.9,N/A,,Clear,330,2013-03-13 21:15:00
5:35 PM,30.2,3.2,32,30.18,10.0,North,11.5,-,N/A,,Clear,350,2013-03-13 21:35:00
5:55 PM,30.2,5.0,34,30.18,10.0,NNW,11.5,-,N/A,,Clear,340,2013-03-13 21:55:00
6:15 PM,30.2,6.8,37,30.19,10.0,NNW,8.1,18.4,N/A,,Clear,340,2013-03-13 22:15:00
6:35 PM,30.2,6.8,37,30.19,10.0,NNW,6.9,-,N/A,,Clear,340,2013-03-13 22:35:00
6:55 PM,30.2,6.8,37,30.20,10.0,North,10.4,16.1,N/A,,Clear,350,2013-03-13 22:55:00
7:15 PM,30.2,8.6,40,30.20,10.0,NNW,8.1,-,N/A,,Clear,340,2013-03-13 23:15:00
7:35 PM,28.4,8.6,43,30.20,10.0,North,6.9,-,N/A,,Clear,350,2013-03-13 23:35:00
7:55 PM,28.4,8.6,43,30.21,10.0,NNW,6.9,-,N/A,,Clear,340,2013-03-13 23:55:00
8:15 PM,28.4,8.6,43,30.21,10.0,North,4.6,-,N/A,,Clear,350,2013-03-14 00:15:00
8:35 PM,28.4,8.6,43,30.22,10.0,North,4.6,-,N/A,,Clear,360,2013-03-14 00:35:00
8:55 PM,26.6,10.4,51,30.23,10.0,NNE,3.5,-,N/A,,Clear,30,2013-03-14 00:55:00
9:15 PM,24.8,10.4,54,30.23,10.0,Calm,Calm,-,N/A,,Clear,0,2013-03-14 01:15:00
9:35 PM,24.8,10.4,54,30.23,10.0,North,5.8,-,N/A,,Clear,360,2013-03-14 01:35:00
9:55 PM,24.8,10.4,54,30.23,10.0,North,3.5,-,N/A,,Clear,360,2013-03-14 01:55:00
10:15 PM,23.0,10.4,59,30.24,10.0,Calm,Calm,-,N/A,,Clear,0,2013-03-14 02:15:00
10:35 PM,21.2,10.4,63,30.24,10.0,Calm,Calm,-,N/A,,Clear,0,2013-03-14 02:35:00
10:55 PM,19.4,10.4,68,30.24,10.0,Calm,Calm,-,N/A,,Clear,0,2013-03-14 02:55:00
11:15 PM,19.4,10.4,68,30.24,10.0,Calm,Calm,-,N/A,,Clear,0,2013-03-14 03:15:00
11:35 PM,15.8,8.6,73,30.23,10.0,Calm,Calm,-,N/A,,Clear,0,2013-03-14 03:35:00
11:55 PM,15.8,10.4,79,30.23,10.0,Calm,Calm,-,N/A,,Clear,0,2013-03-14 03:55:00